Regional Weather Roundup
Issued by NWS

Home | Current Version | Previous Version | Graphics & Text | Print | Product List | Glossary On
Versions: 1 2 3 4 5 6 7 8 9 10 11 12 13 14 15 16 17 18 19 20 21 22 23 24 25 26 27 28 29 30 31 32 33 34 35 36 37 38 39 40 41 42 43 44 45 46 47 48 49 50
379
ASUS45 KBOI 090110
RWRID

IDAHO REGIONAL WEATHER ROUNDUP
NATIONAL WEATHER SERVICE BOISE ID
600 PM MST THU DEC 08 2016

NOTE: "FAIR" INDICATES FEW OR NO CLOUDS BELOW 12000 FEET
WITH NO SIGNIFICANT WEATHER AND/OR OBSTRUCTIONS TO VISIBILITY

IDZ012-014-090200-
SOUTHWEST IDAHO


CITY           SKY/WX    TMP DP  RH WIND       PRES   REMARKS
BOISE          LGT SNOW  25  22  88 SE9       30.08F FOG     WCI  15
CALDWELL       FLURRIES  26  22  84 SE24G32   30.09F WCI  11
MOUNTAIN HOME  LGT SNOW  25  23  93 SE22      30.10F FOG     WCI  10
$$

IDZ016-017-090200-
SOUTHCENTRAL IDAHO


CITY           SKY/WX    TMP DP  RH WIND       PRES   REMARKS
BURLEY         LGT SNOW  20  17  88 NE14      30.09S FOG     WCI   7
JEROME         LGT SNOW  19  16  88 NE22      30.09S FOG     WCI   2
TWIN FALLS     LGT SNOW  20  17  88 NE13      30.07F VSB 3/4 WCI   7
$$

IDZ019>023-090200-
SOUTHEAST IDAHO


CITY           SKY/WX    TMP DP  RH WIND       PRES   REMARKS
IDAHO FALLS    LGT SNOW  17  13  84 N8        30.14F FOG     WCI   7
POCATELLO      LGT SNOW  20  18  92 N3        30.13S
REXBURG        LGT SNOW  15  13  91 NE5       30.13F VSB 3/4 WCI   8
$$

IDZ006-010-011-018-031-032-090200-
CENTRAL IDAHO MOUNTAINS


CITY           SKY/WX    TMP DP  RH WIND       PRES   REMARKS
MCCALL         LGT SNOW  12   8  84 CALM      29.94F FOG
HAILEY         LGT SNOW  18  16  93 NW7       30.08F VSB 1   WCI   8
STANLEY          N/A      3  -2  79 CALM      29.98F
SALMON         CLOUDY    12   3  67 CALM      30.13F
CHALLIS        LGT SNOW  10   8  92 CALM      30.08F FOG
$$

IDZ002-004-006-007-026-090200-
NORTHERN IDAHO


CITY           SKY/WX    TMP DP  RH WIND       PRES   REMARKS
LEWISTON       CLOUDY    23  15  71 SW5       30.13F WCI  17
LOWELL           N/A     24  17  74 CALM      30.18F
COEUR D`ALENE  MOCLDY    18   7  62 N15       30.16F WCI   4
MULLAN PASS    CLOUDY     0  -3  87 VRB3      29.91F
$$




USA.gov is the U.S. government's official web portal to all federal, state and local government web resources and services.